+ View the NASA Portal
+ Center for Near-Earth Object Studies
IMPORTANT:
The SSD Announcement email list is now available. Major changes are coming in the near future, including possible hostname and/or URL changes. To be notified of such changes, subscribe to this email list.
Please visit
this page
for more details.
Don't show this message again
JPL Small-Body Database Browser
Search:
[
help
]
379965 (2012 QV34)
Classification:
Jupiter Trojan
SPK-ID:
2379965
[
Ephemeris
|
Orbit Diagram
|
Orbital Elements
|
Mission Design
|
Physical Parameters
|
Discovery Circumstances
]
[ show orbit diagram ]
Orbital Elements at Epoch 2458600.5 (2019-Apr-27.0) TDB
Reference:
JPL 14
(heliocentric ecliptic J2000)
Element
Value
Uncertainty (1-sigma)
Units
e
.04172136991930939
8.1215e-08
a
5.152331153379979
2.1618e-07
au
q
4.937368839383031
5.6744e-07
au
i
9.162488366063544
8.9813e-06
deg
node
214.7409755820328
4.9948e-05
deg
peri
54.05047241594319
0.00017222
deg
M
284.135641558536
0.0001726
deg
t
p
2459500.700745540989
(2021-Oct-13.20074554)
0.0020667
TDB
period
4271.732801178384
11.70
0.00026885
7.361e-07
d
yr
n
.08427493402693441
5.3041e-09
deg/d
Q
5.367293467376927
2.252e-07
au
Orbit Determination Parameters
# obs. used (total)
164
data-arc span
7989 days (21.87 yr)
first obs. used
1997-06-26
last obs. used
2019-05-11
planetary ephem.
DE431
SB-pert. ephem.
SB431-N16
condition code
0
norm. resid. RMS
.59068
source
ORB
producer
Otto Matic
solution date
2019-May-30 09:46:04
Additional Information
Earth MOID
= 3.93126 au
Jupiter MOID
= .309125 au
T_jup
= 2.973
[ show covariance matrix ]
[
Ephemeris
|
Orbit Diagram
|
Orbital Elements
|
Mission Design
|
Physical Parameters
|
Discovery Circumstances
]
Physical Parameter Table
Parameter
Symbol
Value
Units
Sigma
Reference
Notes
absolute magnitude
H
13.4
n/a
MPO437556
379965 (2012 QV34)
Discovered 2008-Apr-14 by Mt. Lemmon Survey at Mount Lemmon
Reference:
Last Updated:
2013-11-20
[
Ephemeris
|
Orbit Diagram
|
Orbital Elements
|
Mission Design
|
Physical Parameters
|
Discovery Circumstances
]
2019-Dec-16 14:12 UT
(server date/time)
Site Manager:
Ryan S. Park
Webmaster
:
Alan B. Chamberlin